| time (UTC) | temp F | wind direction | speed knots | gust knots | rain 1hr in | rain 24hr in | rain mn in | humidity % | barometer mb |
| 20260505200950 | 58 | 0 | 0.0 | 0.0 | 0.00 | 5.43 | 4.22 | 84 | |
| 20260505195950 | 58 | 0 | 0.9 | 0.0 | 0.00 | 5.43 | 4.22 | 85 | |
| 20260505194950 | 59 | 0 | 0.0 | 0.0 | 0.00 | 5.43 | 4.22 | 82 | |
| 20260505193950 | 59 | 0 | 0.9 | 0.0 | 0.00 | 5.43 | 4.22 | 83 | |
| 20260505192920 | 61 | 0 | 2.6 | 0.0 | 0.00 | 5.43 | 4.22 | 80 | |
| 20260505191920 | 62 | 0 | 0.9 | 0.0 | 0.00 | 5.43 | 4.22 | 77 | |
| 20260505190850 | 62 | 0 | 1.7 | 0.0 | 0.00 | 5.43 | 4.22 | 76 | |
| 20260505185850 | 61 | 0 | 2.6 | 0.0 | 0.00 | 5.43 | 4.22 | 79 | |
| 20260505184820 | 60 | 0 | 2.6 | 0.0 | 0.00 | 5.43 | 4.22 | 82 | |
| 20260505183750 | 60 | 0 | 1.7 | 0.0 | 0.00 | 5.43 | 4.22 | 81 | |
| 20260505182750 | 60 | 0 | 0.0 | 0.0 | 0.00 | 5.43 | 4.22 | 81 | |
| 20260505181720 | 61 | 0 | 2.6 | 0.0 | 0.00 | 5.43 | 4.22 | 75 | |
| 20260505180650 | 61 | 0 | 0.0 | 0.0 | 0.00 | 5.43 | 4.22 | 76 | |
| 20260505175650 | 63 | 0 | 1.7 | 0.0 | 0.00 | 5.43 | 4.22 | 71 | |
| 20260505174620 | 63 | 0 | 1.7 | 0.0 | 0.00 | 5.43 | 4.22 | 71 | |
| 20260505173550 | 61 | 0 | 2.6 | 0.0 | 0.00 | 5.43 | 4.22 | 79 | |
| 20260505172550 | 60 | 0 | 0.9 | 0.0 | 0.00 | 5.43 | 4.22 | 79 | |
| 20260505171550 | 58 | 0 | 1.7 | 0.0 | 0.00 | 5.43 | 4.22 | 85 | |
| 20260505170520 | 56 | 0 | 0.9 | 0.0 | 0.00 | 5.43 | 4.22 | 89 | |
| 20260505165450 | 56 | 0 | 0.0 | 0.0 | 0.00 | 5.43 | 4.22 | 92 | |
| 20260505164420 | 55 | 0 | 1.7 | 0.0 | 0.00 | 5.43 | 4.22 | 93 | |
| 20260505163420 | 53 | 0 | 0.0 | 0.0 | 0.00 | 5.43 | 4.22 | 97 | |
| 20260505162420 | 53 | 0 | 3.5 | 0.0 | 0.00 | 5.43 | 4.22 | 96 | |
| 20260505161350 | 52 | 0 | 1.7 | 0.0 | 4.19 | 5.43 | 4.22 | 98 | |
| 20260505160320 | 52 | 0 | 1.7 | 0.0 | 4.19 | 5.43 | 4.22 | 99 | |
| 20260505153220 | 51 | 0 | 0.0 | 0.0 | 4.19 | 5.43 | 4.22 | 99 | |
| 20260505152220 | 50 | 0 | 0.9 | 0.0 | 4.19 | 5.43 | 4.22 | 99 | |
| 20260505151150 | 50 | 0 | 0.0 | 0.0 | 0.00 | 1.23 | 0.02 | 99 | |
| 20260505150120 | 50 | 0 | 0.0 | 0.0 | 0.00 | 1.23 | 0.02 | 99 | |
| 20260505124650 | 49 | 0 | 0.0 | 0.0 | 0.00 | 1.23 | 0.02 | 99 | |
| 20260505123620 | 49 | 0 | 0.0 | 0.0 | 0.00 | 1.23 | 0.02 | 99 | |
| 20260505122620 | 49 | 0 | 0.0 | 0.0 | 0.00 | 1.23 | 0.02 | 99 | |
| 20260505121550 | 49 | 0 | 0.0 | 0.0 | 0.00 | 1.23 | 0.02 | 99 | |
| 20260505120550 | 49 | 0 | 0.0 | 0.0 | 0.00 | 1.23 | 0.02 | 99 | |
| 20260505115520 | 49 | 0 | 0.0 | 0.0 | 0.00 | 1.23 | 0.02 | 99 | |
| 20260505114450 | 49 | 0 | 0.0 | 0.0 | 0.00 | 1.23 | 0.02 | 99 | |
| 20260505113450 | 49 | 0 | 0.0 | 0.0 | 0.00 | 1.23 | 0.02 | 99 | |
| 20260505112420 | 49 | 0 | 0.0 | 0.0 | 0.00 | 1.23 | 0.02 | 99 | |
| 20260505111350 | 49 | 0 | 0.0 | 0.0 | 0.00 | 1.23 | 0.02 | 99 | |
| 20260505110350 | 49 | 0 | 0.0 | 0.0 | 0.00 | 1.23 | 0.02 | 99 | |
| 20260505101250 | 49 | 0 | 0.0 | 0.0 | 0.00 | 1.23 | 0.02 | 99 | |
| 20260505100250 | 49 | 0 | 0.0 | 0.0 | 0.00 | 1.23 | 0.02 | 99 | |
| 20260505095220 | 49 | 0 | 0.0 | 0.0 | 0.00 | 1.23 | 0.02 | 99 | |
| 20260505094220 | 49 | 0 | 0.9 | 0.0 | 0.00 | 1.23 | 0.02 | 99 | |
| 20260505093150 | 49 | 0 | 1.7 | 0.0 | 0.00 | 1.23 | 0.02 | 99 | |
| 20260505092150 | 49 | 0 | 0.9 | 0.0 | 0.00 | 1.23 | 0.02 | 99 | |
| 20260505091120 | 49 | 0 | 0.0 | 0.0 | 0.00 | 1.23 | 0.02 | 99 | |
| 20260505090120 | 49 | 0 | 0.0 | 0.0 | 0.00 | 1.23 | 0.02 | 99 | |
| 20260505085050 | 49 | 0 | 0.0 | 0.0 | 0.00 | 1.23 | 0.02 | 99 | |
| 20260505084020 | 49 | 0 | 0.0 | 0.0 | 0.00 | 1.23 | 0.02 | 99 | |
| 20260505083020 | 49 | 0 | 0.0 | 0.0 | 0.00 | 1.23 | 0.02 | 99 | |
| 20260505081950 | 49 | 0 | 0.0 | 0.0 | 0.00 | 1.23 | 0.02 | 99 | |
| 20260505080920 | 49 | 0 | 0.0 | 0.0 | 0.01 | 1.23 | 0.02 | 99 | |
| 20260505075920 | 49 | 0 | 0.0 | 0.0 | 0.02 | 1.23 | 0.02 | 99 | |
| 20260505074850 | 49 | 0 | 0.0 | 0.0 | 0.02 | 1.23 | 0.02 | 99 | |
| 20260505073850 | 49 | 0 | 0.0 | 0.0 | 0.04 | 1.23 | 0.02 | 99 | |
| 20260505072850 | 49 | 0 | 0.0 | 0.0 | 0.04 | 1.23 | 0.02 | 99 | |
| 20260505071820 | 49 | 0 | 0.0 | 0.0 | 0.05 | 1.23 | 0.02 | 99 | |
| 20260505070820 | 49 | 0 | 0.0 | 0.0 | 0.03 | 1.21 | 0.00 | 99 | |
| 20260505065750 | 49 | 0 | 0.0 | 0.0 | 0.03 | 1.20 | 1.20 | 99 | |
| 20260505064720 | 49 | 0 | 0.0 | 0.0 | 0.03 | 1.20 | 1.20 | 99 | |
| 20260505063720 | 49 | 0 | 0.0 | 0.0 | 0.03 | 1.18 | 1.18 | 99 | |
| 20260505062720 | 49 | 0 | 0.0 | 0.0 | 0.06 | 1.18 | 1.18 | 99 | |
| 20260505061720 | 49 | 0 | 0.0 | 0.0 | 0.06 | 1.17 | 1.17 | 99 | |
| 20260505060650 | 49 | 0 | 0.0 | 0.0 | 0.06 | 1.17 | 1.17 | 99 | |
| 20260505055650 | 49 | 0 | 1.7 | 0.0 | 0.09 | 1.17 | 1.17 | 99 | |
| 20260505054650 | 49 | 0 | 0.0 | 0.0 | 0.10 | 1.17 | 1.17 | 99 | |
| 20260505053620 | 49 | 0 | 0.0 | 0.0 | 0.11 | 1.14 | 1.14 | 99 | |
| 20260505052550 | 49 | 0 | 0.0 | 0.0 | 0.09 | 1.12 | 1.12 | 99 | |
| 20260505051550 | 49 | 0 | 0.0 | 0.0 | 0.09 | 1.11 | 1.11 | 99 | |
| 20260505050550 | 49 | 0 | 0.0 | 0.0 | 0.12 | 1.11 | 1.11 | 99 | |
| 20260505041420 | 49 | 0 | 0.0 | 0.0 | 0.30 | 1.00 | 1.00 | 99 | |
| 20260505040350 | 49 | 0 | 0.0 | 0.0 | 0.29 | 0.96 | 0.96 | 99 | |
| 20260505035350 | 49 | 0 | 0.0 | 0.0 | 0.27 | 0.87 | 0.87 | 99 | |
| 20260505034350 | 49 | 0 | 0.0 | 0.0 | 0.24 | 0.81 | 0.81 | 99 | |
| 20260505033320 | 49 | 0 | 0.0 | 0.0 | 0.24 | 0.78 | 0.78 | 99 | |
| 20260505032320 | 49 | 0 | 0.0 | 0.0 | 0.23 | 0.75 | 0.75 | 99 | |
| 20260505031250 | 49 | 0 | 0.0 | 0.0 | 0.20 | 0.70 | 0.70 | 99 | |
| 20260505030220 | 49 | 0 | 0.0 | 0.0 | 0.18 | 0.66 | 0.66 | 99 | |
| 20260505025150 | 49 | 0 | 0.0 | 0.0 | 0.13 | 0.60 | 0.60 | 99 | |
| 20260505024150 | 49 | 0 | 1.7 | 0.0 | 0.12 | 0.57 | 0.57 | 99 | |
| 20260505023120 | 50 | 0 | 0.0 | 0.0 | 0.09 | 0.54 | 0.54 | 99 | |
| 20260505022120 | 50 | 0 | 0.0 | 0.0 | 0.09 | 0.51 | 0.51 | 99 | |
| 20260505021050 | 50 | 0 | 1.7 | 0.0 | 0.08 | 0.50 | 0.50 | 99 | |
| 20260505020050 | 50 | 0 | 0.9 | 0.0 | 0.06 | 0.48 | 0.48 | 99 | |
| 20260505015050 | 50 | 0 | 0.0 | 0.0 | 0.07 | 0.47 | 0.47 | 99 | |
| 20260505014050 | 50 | 0 | 2.6 | 0.0 | 0.06 | 0.45 | 0.45 | 99 | |
| 20260505013020 | 50 | 0 | 0.0 | 0.0 | 0.09 | 0.44 | 0.44 | 99 | |
| 20260505011950 | 50 | 0 | 1.7 | 0.0 | 0.09 | 0.42 | 0.42 | 99 | |
| 20260505010920 | 51 | 0 | 0.9 | 0.0 | 0.10 | 0.41 | 0.41 | 99 | |
| 20260505005920 | 51 | 0 | 1.7 | 0.0 | 0.10 | 0.41 | 0.41 | 99 | |
| 20260505004850 | 51 | 0 | 0.9 | 0.0 | 0.09 | 0.39 | 0.39 | 99 | |
| 20260505003820 | 51 | 0 | 0.9 | 0.0 | 0.06 | 0.36 | 0.36 | 99 | |
| 20260505002750 | 51 | 0 | 0.9 | 0.0 | 0.07 | 0.35 | 0.35 | 99 | |
| 20260505001750 | 51 | 0 | 0.9 | 0.0 | 0.06 | 0.32 | 0.32 | 99 | |
| 20260505000720 | 51 | 0 | 0.9 | 0.0 | 0.06 | 0.30 | 0.30 | 99 | |
| 20260504235720 | 51 | 0 | 0.0 | 0.0 | 0.07 | 0.30 | 0.30 | 99 | |
| 20260504234650 | 51 | 0 | 0.9 | 0.0 | 0.08 | 0.30 | 0.30 | 99 | |
| 20260504233620 | 51 | 0 | 0.9 | 0.0 | 0.09 | 0.29 | 0.29 | 99 | |
| 20260504232550 | 51 | 0 | 0.0 | 0.0 | 0.09 | 0.27 | 0.27 | 99 | |
| 20260504231520 | 51 | 0 | 1.7 | 0.0 | 0.09 | 0.24 | 0.24 | 99 | |
| 20260504230450 | 51 | 0 | 1.7 | 0.0 | 0.11 | 0.24 | 0.24 | 99 | |
| 20260504225420 | 51 | 0 | 1.7 | 0.0 | 0.11 | 0.23 | 0.23 | 99 | |
| 20260504224420 | 51 | 0 | 4.3 | 0.0 | 0.09 | 0.21 | 0.21 | 99 | |
| 20260504223350 | 51 | 0 | 1.7 | 0.0 | 0.09 | 0.18 | 0.18 | 99 | |
| 20260504222320 | 51 | 0 | 1.7 | 0.0 | 0.09 | 0.15 | 0.15 | 99 | |
| 20260504221320 | 52 | 0 | 0.9 | 0.0 | 0.09 | 0.14 | 0.14 | 99 | |
| 20260504220320 | 52 | 0 | 3.5 | 0.0 | 0.09 | 0.12 | 0.12 | 99 | |
| 20260504215250 | 52 | 0 | 1.7 | 0.0 | 0.08 | 0.12 | 0.12 | 99 | |
| 20260504214250 | 52 | 0 | 0.0 | 0.0 | 0.09 | 0.11 | 0.11 | 99 | |
| 20260504213220 | 52 | 0 | 1.7 | 0.0 | 0.06 | 0.09 | 0.09 | 99 | |
| 20260504212150 | 52 | 0 | 3.5 | 0.0 | 0.06 | 0.06 | 0.06 | 98 | |
| 20260504211120 | 53 | 0 | 0.0 | 0.0 | 0.05 | 0.05 | 0.05 | 98 | |
| 20260504210120 | 53 | 0 | 0.9 | 0.0 | 0.03 | 0.03 | 0.03 | 97 | |
| 20260504205050 | 53 | 0 | 0.9 | 0.0 | 0.03 | 0.03 | 0.03 | 96 | |
| 20260504204050 | 53 | 0 | 1.7 | 0.0 | 0.02 | 0.02 | 0.02 | 95 | |
| 20260504203050 | 53 | 0 | 2.6 | 0.0 | 0.00 | 0.00 | 0.00 | 95 | |
| 20260504202020 | 54 | 0 | 2.6 | 0.0 | 0.00 | 0.00 | 0.00 | 93 |